[[{"header":{"parameterUnit":"m.s-1","parameterCategory":1,"la1":30.2991,"la2":30.254,"lo1":-89.0895,"lo2":-89.0444,"dy":0.0017,"dx":0.0017,"nx":28,"ny":28,"refTime":"2024-10-21T21:00:00:Z","depth":0,"parameterNumber":2,"parameterNumberName":"U-component_of_WINDS"},"data":[0,0,0,0,0,0,0,0,0,0,0,0,0,0,0,0,0,0,0,0,0,0,0,0,0,0,0,0,0,0,0,0,0,0,0,0,0,0,0,0,0,0,0,0,0,0,0,0,0,0,0,0,0,0,0,0,0,0,-0.5324,-0.5324,0,-0.5274,-0.5274,-0.5273,-0.5239,-0.5238,-0.5238,-0.5238,-0.5185,-0.5184,-0.5183,0,0,0,0,0,0,0,0,0,0,0,0,0,-0.5391,-0.539,-0.5324,-0.5324,-0.5323,-0.5274,-0.5274,-0.5273,-0.5239,-0.5238,-0.5238,-0.5238,-0.5186,-0.5184,-0.5183,0,0,0,0,0,0,0,0,0,0,0,0,0,-0.5353,-0.5389,-0.5324,-0.53,-0.5297,-0.5274,-0.5274,-0.5273,-0.5239,-0.5238,-0.5238,-0.5238,-0.5186,-0.5185,-0.5183,-0.518,0,0,-0.5178,-0.5177,0,0,0,0,0,0,0,0,-0.5356,-0.5351,-0.5304,-0.5302,-0.5299,-0.5262,-0.5278,-0.5242,-0.5239,-0.5261,-0.5238,-0.5237,-0.5211,-0.5207,-0.5199,-0.5177,-0.5175,-0.5177,-0.5176,-0.5176,-0.5175,0,0,0,0,0,0,0,-0.5358,-0.5353,-0.5304,-0.5304,-0.53,-0.5292,-0.5286,-0.5271,-0.5239,-0.5259,-0.5256,-0.5251,-0.521,-0.5201,-0.5197,-0.5174,-0.5177,-0.5176,-0.5175,-0.5174,-0.515,-0.515,0,0,0,0,0,0,-0.5365,-0.5355,-0.5306,-0.5303,-0.5327,-0.5291,-0.5285,-0.5274,-0.5239,-0.5233,-0.5251,-0.525,-0.5204,-0.5199,-0.5195,-0.519,-0.5176,-0.5174,-0.5173,-0.5149,-0.515,-0.515,0,0,0,0,0,0,-0.5366,-0.5361,-0.5308,-0.5328,-0.5321,-0.529,-0.5279,-0.5274,-0.5264,-0.5233,-0.5227,-0.5248,-0.5203,-0.5198,-0.5184,-0.5188,-0.5173,-0.5172,-0.5149,-0.515,-0.515,-0.518,0,0,0,0,0,0,-0.5368,-0.5361,-0.5359,-0.5329,-0.532,-0.5298,-0.5279,-0.5273,-0.5262,-0.5259,-0.5228,-0.5223,-0.5203,-0.5187,-0.5183,-0.5185,-0.517,-0.5148,-0.5149,-0.515,-0.5178,-0.5181,-0.5184,0,0,0,0,0,-0.5371,-0.5369,-0.536,-0.5354,-0.5317,-0.5298,-0.5293,-0.527,-0.5262,-0.526,-0.5241,-0.5224,-0.5189,-0.5186,-0.5181,-0.5183,-0.5148,-0.5149,-0.515,-0.5177,-0.5181,-0.5184,0,0,0,0,0,0,-0.54,-0.5364,-0.5353,-0.5342,-0.5323,-0.5292,-0.5289,-0.5274,-0.5257,-0.5255,-0.5227,-0.5221,-0.521,-0.5195,-0.5193,-0.5179,-0.5166,-0.5166,-0.5189,-0.5192,-0.5195,-0.5198,-0.5169,0,0,0,0,0,-0.5405,-0.5393,-0.5362,-0.5355,-0.5347,-0.532,-0.531,-0.5294,-0.5274,-0.5266,-0.5245,-0.5225,-0.521,-0.52,-0.5184,-0.5177,-0.517,-0.5176,-0.5178,-0.5181,-0.5181,-0.5177,-0.5179,-0.5153,-0.5153,-0.5153,0,0,-0.5416,-0.5395,-0.5388,-0.5361,-0.5344,-0.5332,-0.5313,-0.53,-0.5291,-0.5263,-0.525,-0.5234,-0.5211,-0.5201,-0.5195,-0.5188,-0.5187,-0.5182,-0.5184,-0.5182,-0.5178,-0.518,-0.5183,-0.5154,-0.5154,-0.5154,0,0,-0.5428,-0.5411,-0.5404,-0.5388,-0.5365,-0.5347,-0.5346,-0.5317,-0.5306,-0.5292,-0.5272,-0.5261,-0.5235,-0.5219,-0.5208,-0.5218,-0.5203,-0.5214,-0.5228,-0.5224,-0.5226,-0.5228,-0.5232,-0.5234,-0.5214,-0.5214,-0.5214,0,-0.5444,-0.5424,-0.5402,-0.5391,-0.538,-0.5356,-0.5348,-0.5335,-0.5307,-0.53,-0.5292,-0.5261,-0.5243,-0.523,-0.5232,-0.5224,-0.5222,-0.5216,-0.5228,-0.523,-0.5231,-0.5234,-0.5236,-0.5216,-0.5216,-0.5215,-0.5215,0,-0.5445,-0.5433,-0.543,-0.5404,-0.5393,-0.5384,-0.536,-0.5352,-0.5338,-0.5322,-0.5309,-0.5288,-0.5268,-0.5263,-0.5249,-0.5248,-0.5245,-0.5233,-0.522,-0.5235,-0.5238,-0.5239,-0.5218,-0.5217,-0.5217,-0.5217,0,0,-0.5472,-0.5437,-0.5436,-0.5425,-0.5398,-0.5388,-0.5379,-0.536,-0.5354,-0.5336,-0.5328,-0.5308,-0.5298,-0.5286,-0.527,-0.5267,-0.5277,-0.5256,-0.5255,-0.5261,-0.5277,-0.5285,-0.5287,-0.5268,-0.5268,-0.5268,-0.5279,0,-0.548,-0.5463,-0.5443,-0.5432,-0.5421,-0.5399,-0.5391,-0.5375,-0.536,-0.5348,-0.5332,-0.5319,-0.5306,-0.5298,-0.5295,-0.5277,-0.528,-0.5276,-0.526,-0.526,-0.5266,-0.5288,-0.5297,-0.5308,-0.528,-0.528,-0.528,0,-0.5487,-0.5472,-0.546,-0.5437,-0.5431,-0.5424,-0.5407,-0.5396,-0.5377,-0.5367,-0.5355,-0.5338,-0.5328,-0.5318,-0.5304,-0.5302,-0.5295,-0.5285,-0.5285,-0.5282,-0.527,-0.5286,-0.5311,-0.5312,-0.5281,-0.5281,-0.5281,0,-0.5508,-0.5485,-0.5475,-0.5467,-0.5439,-0.5435,-0.5423,-0.5404,-0.5395,-0.538,-0.5374,-0.5358,-0.5349,-0.5337,-0.5317,-0.5311,-0.5306,-0.5293,-0.5298,-0.5298,-0.5296,-0.5296,-0.532,-0.5293,-0.5293,-0.5293,-0.5293,0,-0.5519,-0.5513,-0.5485,-0.5478,-0.5471,-0.545,-0.5443,-0.543,-0.5414,-0.5405,-0.5386,-0.5378,-0.5353,-0.5343,-0.5327,-0.5319,-0.5315,-0.5307,-0.5303,-0.5308,-0.5309,-0.5302,-0.5301,-0.5293,-0.5293,-0.5293,-0.5293,0,-0.554,-0.5521,-0.5509,-0.5485,-0.5479,-0.5475,-0.5454,-0.5448,-0.5433,-0.5423,-0.5419,-0.5396,-0.5383,-0.5363,-0.5344,-0.5334,-0.5328,-0.5321,-0.5335,-0.5332,-0.5337,-0.5337,-0.5357,-0.5358,-0.533,-0.5331,-0.5331,0,-0.5548,-0.5543,-0.5519,-0.5512,-0.5501,-0.549,-0.5482,-0.5461,-0.5453,-0.5432,-0.5429,-0.5415,-0.5402,-0.5383,-0.5365,-0.5351,-0.5344,-0.5352,-0.5341,-0.5348,-0.5344,-0.5344,-0.5344,-0.5354,-0.5354,-0.5354,-0.5355,0,-0.5564,-0.5555,-0.5543,-0.5529,-0.5519,-0.5506,-0.5493,-0.5489,-0.5465,-0.5457,-0.5444,-0.5435,-0.5417,-0.5403,-0.5387,-0.5375,-0.5361,-0.5358,-0.5359,-0.5364,-0.5372,-0.5368,-0.5341,-0.5358,-0.5357,-0.5357,-0.5357,-0.5357,-0.5578,-0.5574,-0.5556,-0.5544,-0.5532,-0.5521,-0.5514,-0.55,-0.5489,-0.5473,-0.5462,-0.545,-0.5434,-0.5411,-0.54,-0.5391,-0.5385,-0.5385,-0.5385,-0.5385,-0.5387,-0.5374,-0.5388,-0.5388,-0.5388,-0.5388,-0.5388,0,-0.5593,-0.5582,-0.5571,-0.5554,-0.5545,-0.5534,-0.5519,-0.5512,-0.5502,-0.5488,-0.5477,-0.5464,-0.5451,-0.5433,-0.542,-0.5416,-0.541,-0.5413,-0.5413,-0.5411,-0.5394,-0.5395,-0.5419,-0.5419,-0.5419,-0.5419,-0.5419,-0.5419,-0.56,-0.5591,-0.5581,-0.5568,-0.5556,-0.5545,-0.5538,-0.5527,-0.5516,-0.5502,-0.5492,-0.5481,-0.5466,-0.5452,-0.544,-0.5436,-0.5431,-0.5437,-0.543,-0.5415,-0.5412,-0.5409,-0.541,-0.5437,-0.5437,-0.5448,-0.5448,-0.5448]},{"header":{"parameterUnit":"m.s-1","parameterCategory":1,"la1":30.2991,"la2":30.254,"lo1":-89.0895,"lo2":-89.0444,"dy":0.0017,"dx":0.0017,"nx":28,"ny":28,"refTime":"2024-10-21T21:00:00:Z","depth":0,"parameterNumber":3,"parameterNumberName":"V-component_of_WINDS"},"data":[0,0,0,0,0,0,0,0,0,0,0,0,0,0,0,0,0,0,0,0,0,0,0,0,0,0,0,0,0,0,0,0,0,0,0,0,0,0,0,0,0,0,0,0,0,0,0,0,0,0,0,0,0,0,0,0,0,0,-0.2388,-0.2388,0,-0.2362,-0.2361,-0.2361,-0.2341,-0.2341,-0.2341,-0.2341,-0.2314,-0.2313,-0.2313,0,0,0,0,0,0,0,0,0,0,0,0,0,-0.2423,-0.2423,-0.2388,-0.2388,-0.2387,-0.2362,-0.2361,-0.2361,-0.2341,-0.2341,-0.2341,-0.2341,-0.2314,-0.2313,-0.2313,0,0,0,0,0,0,0,0,0,0,0,0,0,-0.2403,-0.2422,-0.2388,-0.2374,-0.2373,-0.2362,-0.2361,-0.2361,-0.2341,-0.2341,-0.2341,-0.2341,-0.2314,-0.2313,-0.2312,-0.2313,0,0,-0.231,-0.231,0,0,0,0,0,0,0,0,-0.2405,-0.2402,-0.2377,-0.2375,-0.2374,-0.2354,-0.2364,-0.2345,-0.2341,-0.2353,-0.2341,-0.234,-0.2327,-0.2326,-0.2321,-0.2311,-0.231,-0.231,-0.2309,-0.2309,-0.2309,0,0,0,0,0,0,0,-0.2406,-0.2403,-0.2378,-0.2377,-0.2375,-0.237,-0.2367,-0.236,-0.2342,-0.2352,-0.2351,-0.2348,-0.2327,-0.2322,-0.232,-0.231,-0.231,-0.2309,-0.2309,-0.2308,-0.2302,-0.2302,0,0,0,0,0,0,-0.2409,-0.2404,-0.2378,-0.2377,-0.2389,-0.237,-0.2366,-0.2361,-0.2342,-0.2339,-0.2348,-0.2347,-0.2324,-0.2321,-0.2319,-0.232,-0.2309,-0.2308,-0.2308,-0.2302,-0.2302,-0.2303,0,0,0,0,0,0,-0.241,-0.2407,-0.238,-0.239,-0.2386,-0.237,-0.2364,-0.2361,-0.2356,-0.2339,-0.2336,-0.2347,-0.2323,-0.2321,-0.2315,-0.2319,-0.2308,-0.2307,-0.2301,-0.2302,-0.2302,-0.2321,0,0,0,0,0,0,-0.2411,-0.2408,-0.2407,-0.239,-0.2386,-0.2375,-0.2364,-0.236,-0.2355,-0.2353,-0.2337,-0.2334,-0.2323,-0.2317,-0.2314,-0.2318,-0.2306,-0.2301,-0.2302,-0.2302,-0.232,-0.2322,-0.2324,0,0,0,0,0,-0.2413,-0.2413,-0.2407,-0.2404,-0.2385,-0.2375,-0.2373,-0.236,-0.2355,-0.2355,-0.2344,-0.2335,-0.2319,-0.2316,-0.2314,-0.2317,-0.2301,-0.2301,-0.2302,-0.2319,-0.2322,-0.2324,0,0,0,0,0,0,-0.2429,-0.241,-0.2404,-0.2398,-0.2389,-0.2372,-0.2371,-0.2363,-0.2354,-0.2353,-0.2338,-0.2334,-0.2331,-0.2323,-0.232,-0.2317,-0.2309,-0.2309,-0.2323,-0.2325,-0.2327,-0.2329,-0.2306,0,0,0,0,0,-0.2432,-0.2426,-0.241,-0.2407,-0.2403,-0.2388,-0.2383,-0.2375,-0.2364,-0.236,-0.2349,-0.2339,-0.2333,-0.2328,-0.2321,-0.2319,-0.2316,-0.232,-0.2322,-0.2324,-0.2324,-0.2325,-0.2327,-0.2305,-0.2305,-0.2305,0,0,-0.2438,-0.2427,-0.2424,-0.241,-0.2402,-0.2397,-0.2384,-0.2379,-0.2375,-0.2359,-0.2354,-0.2346,-0.2334,-0.2331,-0.2329,-0.2324,-0.233,-0.2325,-0.2326,-0.2326,-0.2326,-0.2328,-0.233,-0.2305,-0.2305,-0.2305,0,0,-0.2447,-0.2438,-0.2435,-0.2428,-0.2416,-0.2406,-0.2406,-0.2391,-0.2385,-0.238,-0.2368,-0.2364,-0.2352,-0.2345,-0.234,-0.2349,-0.2341,-0.2347,-0.2358,-0.2359,-0.2361,-0.2362,-0.2367,-0.2369,-0.2348,-0.2348,-0.2348,0,-0.2456,-0.2448,-0.2435,-0.2431,-0.2426,-0.2412,-0.241,-0.2403,-0.2389,-0.2387,-0.2381,-0.2368,-0.2359,-0.2355,-0.2358,-0.2354,-0.2354,-0.2349,-0.2361,-0.2363,-0.2364,-0.2369,-0.2371,-0.2349,-0.2349,-0.2349,-0.2349,0,-0.2461,-0.2455,-0.2455,-0.2443,-0.2438,-0.2435,-0.2422,-0.2419,-0.2411,-0.2403,-0.2399,-0.2388,-0.238,-0.2378,-0.237,-0.2374,-0.2372,-0.2364,-0.2355,-0.2367,-0.2372,-0.2373,-0.235,-0.235,-0.235,-0.2349,0,0,-0.2477,-0.2461,-0.2461,-0.2456,-0.2443,-0.2439,-0.2437,-0.2429,-0.2427,-0.2419,-0.2417,-0.2408,-0.2402,-0.2397,-0.2388,-0.2389,-0.24,-0.2381,-0.2381,-0.2386,-0.2406,-0.2413,-0.2415,-0.2394,-0.2394,-0.2394,-0.2408,0,-0.2485,-0.248,-0.2469,-0.2467,-0.2464,-0.2452,-0.245,-0.2442,-0.2435,-0.2431,-0.2423,-0.2418,-0.2409,-0.2406,-0.2407,-0.2398,-0.2403,-0.2397,-0.2393,-0.2393,-0.2398,-0.2417,-0.2423,-0.2436,-0.2409,-0.2409,-0.2409,0,-0.2492,-0.2486,-0.2485,-0.2475,-0.2473,-0.2471,-0.2465,-0.2461,-0.2453,-0.2448,-0.2443,-0.2434,-0.2432,-0.2424,-0.2422,-0.2418,-0.2416,-0.2412,-0.2412,-0.2412,-0.2403,-0.2418,-0.244,-0.2442,-0.2412,-0.2411,-0.2411,0,-0.2507,-0.2498,-0.2497,-0.2493,-0.2481,-0.2481,-0.2476,-0.2467,-0.2464,-0.2459,-0.2457,-0.2451,-0.2448,-0.2444,-0.2435,-0.2429,-0.2434,-0.2425,-0.2431,-0.2432,-0.2433,-0.2433,-0.2456,-0.243,-0.243,-0.243,-0.243,0,-0.2517,-0.2516,-0.2503,-0.2502,-0.2503,-0.2492,-0.2492,-0.2486,-0.248,-0.2478,-0.2467,-0.2466,-0.2453,-0.2451,-0.2443,-0.2444,-0.2442,-0.2439,-0.2437,-0.2441,-0.2441,-0.244,-0.2439,-0.2431,-0.243,-0.243,-0.243,0,-0.2532,-0.2523,-0.2521,-0.2511,-0.2509,-0.251,-0.2501,-0.2501,-0.2494,-0.2492,-0.2491,-0.2481,-0.2478,-0.2468,-0.2462,-0.2457,-0.2461,-0.2457,-0.2464,-0.2463,-0.2471,-0.2471,-0.2494,-0.2497,-0.2468,-0.2469,-0.2469,0,-0.2539,-0.2539,-0.253,-0.2529,-0.2525,-0.2522,-0.252,-0.251,-0.2508,-0.2501,-0.2502,-0.2498,-0.2495,-0.2492,-0.2484,-0.248,-0.2476,-0.2485,-0.2475,-0.248,-0.2478,-0.2479,-0.248,-0.2487,-0.2487,-0.2487,-0.2487,0,-0.2554,-0.255,-0.2547,-0.2544,-0.2542,-0.2538,-0.2534,-0.2533,-0.2522,-0.2521,-0.2519,-0.2516,-0.2512,-0.251,-0.2505,-0.25,-0.2493,-0.2491,-0.2492,-0.2496,-0.2501,-0.2501,-0.2471,-0.249,-0.249,-0.249,-0.2489,-0.2489,-0.2566,-0.2567,-0.2561,-0.2559,-0.2556,-0.2553,-0.2553,-0.2547,-0.2545,-0.2541,-0.2536,-0.2535,-0.2529,-0.2523,-0.2519,-0.2519,-0.2515,-0.2516,-0.2517,-0.2518,-0.2521,-0.2501,-0.2518,-0.2518,-0.2518,-0.2518,-0.2518,0,-0.2581,-0.2578,-0.2576,-0.2572,-0.2571,-0.2565,-0.2561,-0.256,-0.256,-0.2556,-0.2554,-0.2553,-0.2551,-0.2544,-0.2542,-0.2543,-0.254,-0.2543,-0.2544,-0.2543,-0.2524,-0.2524,-0.2546,-0.2546,-0.2546,-0.2546,-0.2546,-0.2546,-0.2589,-0.259,-0.2587,-0.2587,-0.2584,-0.2584,-0.2583,-0.2581,-0.2578,-0.2577,-0.2576,-0.2572,-0.2568,-0.2566,-0.2564,-0.2563,-0.2563,-0.2568,-0.2565,-0.2547,-0.2544,-0.2542,-0.2541,-0.2568,-0.2568,-0.2584,-0.2585,-0.2585]}]]